Tracking 29892 objects as of 21-Nov-2024
HD Live streaming from Space Station
objects crossing your sky now

STARLINK-3287

Track STARLINK-3287 now!
10-day predictions
STARLINK-3287 is classified as:


NORAD ID: 50172
Int'l Code: 2021-125S
Perigee: 545.9 km
Apogee: 547.8 km
Inclination: 53.2 °
Period: 95.4 minutes
Semi major axis: 6917 km
RCS: Unknown
Launch date: December 18, 2021
Source: United States (US)
Launch site: AIR FORCE WESTERN TEST RANGE (AFWTR)
Your satellite tracking list
Your tracking list is empty




NASA's NSSDC Master Catalog

Two Line Element Set (TLE):
1 50172U 21125S   24324.95277376  .00000634  00000-0  57913-4 0  9999
2 50172  53.2150 220.2966 0001392  77.0936 283.0211 15.08841800164965
Source of the keplerian elements: AFSPC